Forecasts are only available for sites displaying the forecast symbol.

Some water levels are actually in metres AHD (Australian Height Datum), click individual sites for more details.

Scroll for more >

River gauges, storages, and weirs in the Murray–Darling Basin

Typesort descending Location River Water level Flow Volume Release Water temp Salinity Rainfall
River Gauge Swan Hill Murray 1.3 m 27/01/2021 14:45 6634 ML/Day 27/01/2021 14:45 Not measured Not measured 25.8°C 27/01/2021 14:45 117.0 μS/cm 27/01/2021 14:45 Not measured Full data
River Gauge Bandiana Kiewa 1.03 m 27/01/2021 14:45 512 ML/Day 27/01/2021 14:45 Not measured Not measured 26.6°C 27/01/2021 14:45 34.4 μS/cm 27/01/2021 14:45 Not measured Full data
River Gauge Tocumwal Murray 2.15 m 27/01/2021 14:45 9624 ML/Day 27/01/2021 14:45 Not measured Not measured 25.8°C 27/01/2021 14:45 66.6 μS/cm 27/01/2021 14:45 Not measured Full data
River Gauge Edward Escape Wakool 1.14 m 27/01/2021 14:45 1953 ML/Day 27/01/2021 14:45 Not measured Not measured 25.1°C 27/01/2021 14:45 59.9 μS/cm 27/01/2021 14:45 Not measured Full data
River Gauge Rochester Campaspe 1.8 m 27/01/2021 14:45 139 ML/Day 27/01/2021 14:45 Not measured Not measured 24.7°C 27/01/2021 14:45 653.5 μS/cm 27/01/2021 14:45 0.00 mm 26/01/2021 9:00 Full data
River Gauge Wakool Junction Murray 3.04 m 27/01/2021 14:45 8303 ML/Day 27/01/2021 14:45 Not measured Not measured 26.6°C 27/01/2021 14:45 93.1 μS/cm 27/01/2021 14:45 Not measured Full data
River Gauge Doctors Point Murray 2.93 m 27/01/2021 15:00 14266 ML/Day 27/01/2021 15:00 Not measured Not measured 22.2°C 27/01/2021 15:00 57.1 μS/cm 27/01/2021 15:00 Not measured Full data
River Gauge Murray Bridge Murray 0.73 m 27/01/2021 13:45 Not measured Not measured Not measured 22.5°C 27/01/2021 13:45 232.2 μS/cm 27/01/2021 13:45 Not measured Full data
River Gauge Kerang Loddon 0.31 m 27/01/2021 14:45 86 ML/Day 27/01/2021 14:45 Not measured Not measured 25.5°C 27/01/2021 14:45 182.6 μS/cm 27/01/2021 14:45 Not measured Full data
River Gauge Morgan Downstream Murray Not measured Not measured Not measured 5388.5 ML/d27/01/2021 13:45 Not measured 219.3 μS/cm 27/01/2021 12:45 Not measured Full data
River Gauge Frenchman Creek Murray 27.29 m 27/01/2021 7:45 Not measured Not measured 3093.2 ML/d27/01/2021 7:45 Not measured Not measured Not measured Full data
River Gauge Edward River Offtake Murray 2.42 m 27/01/2021 15:00 1590 ML/Day 27/01/2021 15:00 Not measured Not measured 26.1°C 27/01/2021 14:45 58.7 μS/cm 27/01/2021 14:45 Not measured Full data
River Gauge Barmah Choke Murray 2.52 m 27/01/2021 14:45 7485 ML/Day 27/01/2021 14:45 Not measured Not measured Not measured Not measured Not measured Full data
River Gauge Albury (Union Bridge) Murray 2.02 m 27/01/2021 15:00 Not measured Not measured Not measured 22.3°C 27/01/2021 15:00 57.1 μS/cm 27/01/2021 15:00 Not measured Full data
River Gauge Lake Alexandrina Murray 0.76 m 27/01/2021 5:45 Not measured 1616 GL 27/01/2021 5:45 Not measured Not measured 691.7 μS/cm 27/01/2021 13:45 Not measured Full data
River Gauge Hinnomunjie Mitta 0.73 m 27/01/2021 14:45 546 ML/Day 27/01/2021 14:45 Not measured Not measured 20.5°C 27/01/2021 14:45 35.1 μS/cm 27/01/2021 14:45 27.0 mm 26/01/2021 9:00 Full data
River Gauge Gulpa Creek Offtake Murray 2.62 m 27/01/2021 14:45 348 ML/Day 27/01/2021 14:45 Not measured Not measured Not measured Not measured Not measured Full data
River Gauge Redcliffs Murray Not measured Not measured Not measured Not measured Not measured 112.0 μS/cm 27/01/2021 7:45 Not measured Full data
River Gauge Corowa Murray 3.03 m 27/01/2021 15:00 14973 ML/Day 27/01/2021 15:00 Not measured Not measured 23.3°C 27/01/2021 15:00 58.4 μS/cm 27/01/2021 15:00 Not measured Full data
River Gauge Lake Albert Murray 0.75 m 27/01/2021 5:45 Not measured 271 GL 27/01/2021 5:45 Not measured Not measured Not measured Not measured Full data
River Gauge Rufus River Murray 21.81 m 27/01/2021 7:45 Not measured Not measured 7777.5 ML/d27/01/2021 7:45 Not measured 120.6 μS/cm 27/01/2021 12:45 Not measured Full data
River Gauge Echuca Wharf Murray 86.98 m 27/01/2021 7:45 Not measured Not measured Not measured Not measured Not measured Not measured Full data
River Gauge Wakool Canal Wakool 0.64 m 27/01/2021 14:45 Not measured Not measured 800.3 ML/d27/01/2021 8:45 Not measured Not measured Not measured Full data
River Gauge Wilcania Darling -0.27 m 27/01/2021 14:45 0.00 ML/Day 27/01/2021 14:45 Not measured Not measured 25.5°C 8/12/2020 14:15 0.00 μS/cm 8/12/2020 14:15 Not measured Full data
River Gauge Colignan Murray 1.87 m 27/01/2021 14:45 6326 ML/Day 27/01/2021 14:45 Not measured Not measured 26.7°C 27/01/2021 14:45 77.9 μS/cm 27/01/2021 14:45 Not measured Full data
River Gauge Tauwitchere Barrage Murray 0.73 m 27/01/2021 13:45 Not measured Not measured Not measured Not measured Not measured Not measured Full data
River Gauge Colemans Mitta 1.05 m 27/01/2021 15:45 349 ML/Day 27/01/2021 15:45 Not measured Not measured 20.7°C 19/01/2021 13:45 47.6 μS/cm 19/01/2021 13:45 Not measured Full data
River Gauge Biggara Murray 0.49 m 27/01/2021 15:15 591 ML/Day 27/01/2021 15:15 Not measured Not measured 24.1°C 27/01/2021 15:15 45.3 μS/cm 27/01/2021 15:15 15.6 mm 26/01/2021 9:00 Full data
River Gauge Bringenbrong Bridge Murray 1.25 m 27/01/2021 15:15 2291 ML/Day 27/01/2021 15:15 Not measured Not measured Not measured Not measured Not measured Full data
River Gauge Weir 32 Upstream Darling 1.46 m 27/01/2021 14:45 376 ML/Day 27/01/2021 14:45 Not measured Not measured 24.8°C 27/01/2021 14:45 374.3 μS/cm 27/01/2021 14:45 Not measured Full data
River Gauge Mundoo Barrage Murray 0.78 m 27/01/2021 7:45 Not measured Not measured Not measured Not measured Not measured Not measured Full data
River Gauge Tallandoon Mitta 1.55 m 27/01/2021 13:45 852 ML/Day 27/01/2021 13:45 Not measured Not measured 24.3°C 27/01/2021 14:45 50.8 μS/cm 27/01/2021 14:45 Not measured Full data
River Gauge Flow to South Australia Murray Not measured Not measured Not measured 9472.0 ML/d27/01/2021 7:45 Not measured Not measured Not measured Full data
River Gauge Torrumbarry Headworks Murray 84.68 m 27/01/2021 14:45 Not measured Not measured 1379.4 ML/d27/01/2021 14:45 Not measured Not measured Not measured Full data
River Gauge Pinegrove Murray 1.35 m 27/01/2021 15:15 580 ML/Day 27/01/2021 15:15 Not measured Not measured 23.7°C 27/01/2021 15:15 38.9 μS/cm 27/01/2021 15:15 10.4 mm 27/01/2021 9:00 Full data
River Gauge Burtundy Darling 0.75 m 27/01/2021 14:45 208 ML/Day 27/01/2021 14:45 Not measured Not measured 27.1°C 27/01/2021 14:45 458.1 μS/cm 27/01/2021 14:45 Not measured Full data
River Gauge Yarrawonga Main Channel Murray 123.31 m 27/01/2021 14:45 Not measured Not measured 520.6 ML/d27/01/2021 14:45 Not measured Not measured Not measured Full data
River Gauge Balranald Murrumbidgee 1.49 m 27/01/2021 14:45 1071 ML/Day 27/01/2021 14:45 Not measured Not measured 27.1°C 27/01/2021 14:45 111.7 μS/cm 27/01/2021 14:45 Not measured Full data
River Gauge Stoney Crossing Murray 1.5 m 27/01/2021 14:45 652 ML/Day 27/01/2021 14:45 Not measured 636.1 ML/d27/01/2021 7:45 28.1°C 27/01/2021 14:45 154.9 μS/cm 27/01/2021 14:45 Not measured Full data
River Gauge Jingellic Murray 1.71 m 27/01/2021 14:45 4662 ML/Day 27/01/2021 14:45 Not measured Not measured 19.3°C 27/01/2021 14:45 25.4 μS/cm 27/01/2021 14:45 12.2 mm 26/01/2021 9:00 Full data
River Gauge McCoy Bridge Goulburn 1.55 m 27/01/2021 14:45 1094 ML/Day 27/01/2021 14:45 Not measured Not measured 26.5°C 27/01/2021 14:45 61.3 μS/cm 27/01/2021 14:45 Not measured Full data
River Gauge Mulwala Canal Murray Not measured Not measured Not measured 3539.7 ML/d27/01/2021 8:45 Not measured Not measured Not measured Full data
River Gauge Peechelba Ovens 126.22 m 27/01/2021 14:45 274 ML/Day 27/01/2021 14:45 Not measured Not measured 26.0°C 27/01/2021 14:45 77.1 μS/cm 27/01/2021 14:45 Not measured Full data
Storage Hume Dam Murray 183.96 m 27/01/2021 15:30 Not measured 1637 GL 27/01/2021 15:30 13027.0 ML/d27/01/2021 8:00 Not measured Not measured 3.0 mm 26/01/2021 9:00 Full data
Storage Lake Victoria Murray 23.88 m 27/01/2021 13:45 Not measured 332 GL 27/01/2021 13:45 Not measured 20.7°C 21/01/2021 5:15 144.1 μS/cm 21/01/2021 7:45 Not measured Full data
Storage Dartmouth Dam Mitta 460.45 m 27/01/2021 15:45 Not measured 2395 GL 27/01/2021 15:45 Not measured Not measured Not measured Not measured Full data
Storage Menindee Lakes Darling Not measured Not measured 326 GL 27/01/2021 7:45 Not measured Not measured Not measured Not measured Full data
Weirs Lock 6 Upstream Murray 19.28 m 27/01/2021 13:45 Not measured Not measured Not measured 25.4°C 27/01/2021 13:45 157.0 μS/cm 27/01/2021 13:45 Not measured Full data
Weirs Lock 1 Upstream Murray 3.26 m 27/01/2021 13:45 Not measured Not measured Not measured 24.4°C 27/01/2021 13:45 224.2 μS/cm 27/01/2021 13:45 Not measured Full data
Weirs Lock 2 Upstream Murray 6.16 m 27/01/2021 13:45 Not measured Not measured Not measured 25.7°C 27/01/2021 13:45 216.2 μS/cm 27/01/2021 13:45 Not measured Full data
Weirs Lock 8 Upstream Murray 24.11 m 27/01/2021 11:45 Not measured Not measured Not measured 25.3°C 27/01/2021 11:45 126.1 μS/cm 27/01/2021 11:45 Not measured Full data
Weirs Lock 5 Downstream Murray 13.48 m 27/01/2021 13:45 Not measured Not measured Not measured Not measured Not measured Not measured Full data
Weirs Steven's Weir Upstream Edward 4.6 m 27/01/2021 15:00 Not measured Not measured Not measured Not measured Not measured Not measured Full data
Weirs Lock 5 Upstream Murray 16.36 m 27/01/2021 13:45 Not measured Not measured Not measured 25.6°C 27/01/2021 13:45 173.6 μS/cm 27/01/2021 13:45 Not measured Full data
Weirs Euston Weir Upstream Murray 47.64 m 27/01/2021 8:45 Not measured 37 GL 27/01/2021 7:45 Not measured Not measured Not measured 145.9 mm 5/03/2020 9:00 Full data
Weirs Lock 1 Downstream Murray 0.78 m 27/01/2021 13:45 Not measured Not measured 5424.7 ML/d27/01/2021 7:45 Not measured Not measured Not measured Full data
Weirs Steven's Weir Downstream Edward 2.38 m 27/01/2021 14:45 2604 ML/Day 27/01/2021 14:45 Not measured Not measured 25.9°C 27/01/2021 14:45 58.1 μS/cm 27/01/2021 14:45 Not measured Full data
Weirs Lock 4 Downstream Murray 10.69 m 27/01/2021 13:45 Not measured Not measured Not measured Not measured Not measured Not measured Full data
Weirs Euston Weir Downstream Murray 43.28 m 27/01/2021 14:45 7694 ML/Day 27/01/2021 14:45 Not measured Not measured 25.9°C 27/01/2021 14:45 84.9 μS/cm 27/01/2021 14:45 Not measured Full data
Weirs Lock 4 Upstream Murray 13.24 m 27/01/2021 13:45 Not measured Not measured Not measured Not measured Not measured Not measured Full data
Weirs Yarrawonga Weir Upstream Murray 124.88 m 27/01/2021 14:45 Not measured Not measured Not measured Not measured Not measured 6.0 mm 26/01/2021 9:00 Full data
Weirs Lock 7 Downstream Murray 20.81 m 27/01/2021 13:45 Not measured Not measured Not measured Not measured Not measured Not measured Full data
Weirs Torrumbarry Weir Downstream Murray 2.33 m 27/01/2021 14:45 6736 ML/Day 27/01/2021 14:45 Not measured Not measured 26.4°C 27/01/2021 14:45 63.8 μS/cm 27/01/2021 14:45 Not measured Full data
Weirs Lock 3 Downstream Murray 6.38 m 27/01/2021 13:45 Not measured Not measured Not measured Not measured Not measured Not measured Full data
Weirs Mildura Weir downstream Murray 30.9 m 27/01/2021 14:45 Not measured Not measured Not measured 26.9°C 27/01/2021 14:45 236.9 μS/cm 27/01/2021 14:45 Not measured Full data
Weirs Yarrawonga Weir Downstream Murray 1.56 m 27/01/2021 15:00 9539 ML/Day 27/01/2021 15:00 Not measured Not measured 25.3°C 27/01/2021 15:00 69.1 μS/cm 27/01/2021 15:00 Not measured Full data
Weirs Lock 7 Upstream Murray 21.59 m 27/01/2021 13:45 Not measured Not measured Not measured 26.5°C 27/01/2021 13:45 130.1 μS/cm 27/01/2021 13:45 Not measured Full data
Weirs Torrumbarry Weir Upstream Murray 86.05 m 27/01/2021 13:45 Not measured 37 GL 27/01/2021 7:45 Not measured 25.7°C 27/01/2021 7:45 64.0 μS/cm 27/01/2021 12:45 2.2 mm 25/01/2021 9:00 Full data
Weirs Lock 3 Upstream Murray 9.87 m 27/01/2021 13:45 Not measured Not measured Not measured Not measured Not measured Not measured Full data
Weirs Lock 9 Downstream Murray 24.08 m 27/01/2021 13:45 Not measured Not measured Not measured Not measured Not measured Not measured Full data
Weirs Wentworth Weir Murray 27.56 m 27/01/2021 14:45 Not measured Not measured 5438.2 ML/d27/01/2021 8:45 Not measured 108.0 μS/cm 27/01/2021 7:45 Not measured Full data
Weirs Lock 6 Downstream Murray 16.58 m 27/01/2021 13:45 Not measured Not measured Not measured Not measured Not measured Not measured Full data
Weirs Lock 2 Downstream Murray 3.44 m 27/01/2021 13:45 Not measured Not measured Not measured Not measured Not measured Not measured Full data
Weirs Lock 9 Upstream Murray 27.35 m 27/01/2021 13:45 Not measured Not measured Not measured 25.4°C 27/01/2021 13:45 129.2 μS/cm 27/01/2021 13:45 Not measured Full data